Probability
18 19 20 18 15 13 12 10 9 9 9 8 8 7 7 9 10 9 9 11 11 10 9 9 10 13 16 21 25 22 14 11 9 8 9 9 8 10 10 8 7 5 4
20 21 20 18 15 14 13 10 9 8 8 7 6 5 6 7 8 8 7 7 8 7 6 6 7 8 13 19 25 23 18 15 13 11 11 9 8 9 10 9 8 6 4
24 23 20 18 15 13 13 10 9 7 7 6 4 2 3 4 4 5 4 4 4 3 2 2 2 3 7 13 20 23 22 20 15 12 11 8 7 9 9 8 7 6 5
24 22 19 16 13 12 10 9 8 7 6 4 2 1 1 2 1 2 2 3 3 2 2 2 1 1 3 7 13 19 22 22 17 12 9 8 10 11 10 7 6 7 6
20 17 15 13 11 9 8 8 8 7 6 5 3 2 1 1 0 0 1 2 2 3 4 5 4 2 3 7 10 15 19 22 21 16 11 10 13 14 11 8 6 6 5
16 14 12 11 10 8 8 8 8 7 6 5 5 4 3 1 0 0 0 1 1 2 5 7 8 7 6 8 11 13 16 20 21 19 14 12 14 15 11 8 6 5 3
14 13 11 10 9 9 8 8 8 6 5 5 5 5 3 2 1 0 0 1 1 2 3 6 8 9 9 10 11 13 15 16 17 17 15 15 16 15 11 7 6 4 3
14 13 10 8 7 7 7 6 6 5 4 4 4 4 3 2 2 1 0 1 1 2 2 4 6 7 9 12 12 12 12 13 13 14 14 16 16 14 11 8 6 4 3
13 11 8 5 3 4 6 5 4 4 2 2 3 3 2 2 2 2 1 0 1 2 2 2 3 3 5 9 10 9 9 9 9 10 12 14 14 12 10 9 6 5 5
11 9 6 4 3 4 4 4 3 3 2 1 1 1 1 2 2 2 1 0 0 1 1 1 1 1 2 4 5 6 5 4 5 6 9 12 13 12 9 7 6 6 6
9 7 5 5 5 3 2 3 3 3 2 1 1 1 1 1 1 1 0 0 0 0 1 1 1 1 1 2 3 2 1 1 3 4 6 9 11 11 9 7 6 6 5
6 6 5 5 4 2 2 2 3 2 1 1 0 0 0 0 0 0 0 0 1 1 1 2 1 1 1 2 2 1 0 1 2 3 3 4 7 10 10 8 6 6 6
5 5 5 4 3 2 2 2 1 1 0 0 0 0 1 1 1 0 0 0 0 0 1 1 1 0 0 1 1 1 0 0 1 1 1 1 3 7 8 7 6 6 7
4 5 4 3 2 1 1 1 0 0 0 0 0 0 1 1 1 0 1 1 1 0 0 0 0 0 0 1 1 0 0 0 0 0 0 0 1 3 5 5 5 4 5
3 3 2 1 1 1 1 1 0 0 0 1 1 0 0 0 0 0 1 2 2 1 0 0 0 0 0 1 0 0 0 0 0 0 0 0 0 1 2 3 2 2 3
2 1 0 0 0 0 1 1 0 0 1 2 2 1 0 0 1 1 2 2 2 1 0 0 0 0 0 0 0 0 0 0 0 0 0 0 0 0 1 1 0 1 2
2 1 0 1 1 1 0 0 0 0 1 2 2 1 0 1 2 2 2 2 1 1 0 0 0 0 0 0 0 1 1 0 0 0 0 0 0 0 0 0 0 0 1
1 0 0 1 2 1 0 0 0 0 1 2 2 1 0 1 2 3 3 3 2 2 1 0 0 0 0 0 0 1 1 0 0 0 0 0 0 0 0 0 0 0 0
0 0 0 1 1 1 0 0 0 0 1 3 2 1 0 1 1 2 3 3 3 3 2 1 1 1 1 0 0 1 1 0 0 0 0 0 0 0 0 0 0 0 0
1 0 0 0 0 0 0 0 0 1 2 3 3 1 0 0 0 1 1 2 3 3 3 2 2 2 1 0 0 0 0 0 0 0 0 0 0 0 0 0 0 0 0
2 1 0 0 0 0 0 0 0 1 3 3 3 2 1 0 0 0 0 1 1 2 2 2 1 1 0 0 0 0 0 0 0 0 0 0 0 0 0 0 0 0 0
2 1 0 0 0 0 0 0 1 2 3 3 3 2 1 0 0 0 0 0 0 1 1 1 0 0 0 0 0 0 0 0 0 0 0 0 0 0 0 0 0 0 0
2 1 0 0 0 0 0 0 1 2 3 3 2 1 0 0 0 0 0 0 0 0 0 0 0 0 0 0 0 0 0 0 0 0 0 0 0 0 0 0 0 0 0
2 1 0 0 0 0 0 0 1 2 3 2 1 0 0 0 0 0 0 0 0 0 0 0 0 0 0 0 0 0 0 0 0 0 0 0 0 0 0 0 0 0 0
1 0 0 0 0 0 0 0 1 1 1 1 0 0 0 0 0 0 0 0 0 0 0 0 0 0 0 0 0 0 0 0 0 0 0 0 0 0 0 0 0 0 0
0 0 0 0 0 0 0 0 0 1 0 0 0 0 0 0 0 0 0 0 0 0 0 0 0 0 0 0 0 0 0 0 0 0 0 0 0 0 0 0 0 0 0
Wind_Speed
2 1 1 2 2 2 2 3 4 4 5 5 5 5 6 6 6 6 3 2 4 5 7 7 8 9 9 9 10 11 12 13 13 13 13 13 12 12 12 13 12 13 13
1 2 2 1 2 2 3 3 3 4 4 4 5 5 6 6 5 6 6 4 5 6 6 7 8 8 8 8 9 9 10 11 11 12 13 13 13 12 12 12 13 13 13
2 2 1 2 1 2 2 3 3 4 4 4 5 6 5 6 6 6 7 6 5 6 6 6 7 7 8 8 8 8 9 10 10 11 12 12 12 12 12 13 13 13 13
2 2 1 1 2 2 2 2 3 4 4 5 4 5 5 4 6 6 6 6 5 5 4 4 5 6 7 8 8 9 9 9 10 10 11 12 12 12 12 12 13 13 13
1 2 1 1 3 2 2 4 3 4 4 5 5 5 5 5 5 5 6 6 5 5 5 3 5 6 6 7 7 8 9 10 9 10 11 11 12 11 11 12 12 12 12
2 2 1 1 3 2 2 2 4 4 5 5 6 5 6 5 5 4 5 4 4 5 5 4 4 5 6 6 7 8 9 9 9 9 10 11 11 11 11 11 12 12 12
1 2 2 1 2 1 2 3 4 4 4 4 5 5 5 5 4 4 4 4 4 4 5 5 5 4 3 6 6 7 8 8 9 9 9 9 10 10 11 11 11 12 12
2 2 2 2 2 2 2 3 3 4 3 3 4 5 4 3 3 3 3 4 5 4 5 5 4 5 5 4 2 6 7 7 7 9 9 9 9 9 10 11 11 12 13
2 1 2 2 2 3 2 3 3 4 4 3 3 4 5 4 5 3 3 4 4 5 5 5 5 5 6 5 4 4 5 5 7 8 8 9 9 9 10 11 12 12 12
3 2 2 2 2 2 2 3 3 4 4 4 2 3 4 4 5 4 4 3 4 5 6 5 5 5 6 5 3 3 4 5 6 7 8 8 8 10 11 12 12 12 12
3 2 2 2 2 2 2 3 3 4 3 4 4 4 4 4 6 6 6 5 5 4 4 5 5 5 5 5 4 2 3 4 5 6 6 8 8 8 10 11 11 11 11
2 2 2 2 2 2 2 3 3 3 4 5 5 5 5 5 5 5 6 6 6 4 4 4 5 4 4 4 4 2 3 4 4 5 6 7 7 8 9 10 11 11 11
2 2 2 2 2 2 3 3 3 4 4 5 5 5 5 5 5 5 6 6 7 5 4 4 4 4 4 3 2 2 4 4 5 5 5 6 7 8 9 9 9 10 10
1 2 3 3 3 3 3 3 4 4 4 5 6 5 5 5 5 5 5 6 6 5 4 4 3 3 4 3 1 3 3 4 5 5 6 7 7 7 7 7 7 8 8
2 2 3 3 3 3 4 4 4 5 5 6 6 5 5 5 5 5 5 5 6 6 5 4 4 3 3 3 1 3 4 3 4 5 6 7 7 7 7 7 7 8 8
2 3 3 3 4 4 4 5 5 4 6 6 5 6 6 5 4 5 5 5 6 6 6 4 4 4 3 3 2 3 3 4 5 6 6 6 7 7 7 7 8 8 8
3 4 4 4 4 4 4 5 6 6 7 6 6 6 6 6 5 5 5 5 5 5 6 5 4 3 3 5 4 4 4 4 4 7 7 6 6 7 8 8 8 9 9
3 4 4 4 4 4 5 6 7 6 7 7 7 6 7 5 6 6 5 6 5 5 6 6 5 4 4 5 5 5 4 4 4 6 7 7 7 7 8 8 8 9 9
3 3 3 4 4 5 5 6 6 6 7 6 6 7 7 6 7 6 6 6 5 5 5 5 5 4 4 4 4 5 5 4 5 5 8 9 9 8 8 8 9 9 9
4 3 4 4 5 5 5 6 6 6 6 6 6 7 7 7 6 7 6 6 6 6 5 5 5 4 3 4 4 4 4 4 4 4 4 5 7 9 9 9 9 9 9
4 3 4 4 4 5 4 5 6 7 7 7 7 6 6 6 6 6 6 6 6 5 5 4 4 4 4 3 4 4 4 3 4 4 4 5 5 6 7 9 10 10 10
4 4 4 4 5 4 2 3 6 7 7 7 7 6 6 5 5 7 8 8 8 7 6 5 5 5 5 5 4 4 4 4 4 3 4 4 4 5 5 6 8 10 10
4 4 4 4 5 3 2 3 5 7 7 7 7 6 6 4 4 5 5 8 8 8 8 7 7 6 6 5 5 6 5 5 4 3 4 5 4 5 5 4 10 10 10
4 4 4 4 5 3 1 3 6 7 7 7 6 6 6 6 5 5 6 6 6 5 6 7 6 7 6 5 5 6 6 6 6 5 4 5 4 4 4 3 9 11 11
4 4 4 4 5 3 1 3 6 6 5 6 6 5 5 6 2 3 6 6 6 5 5 5 6 6 6 7 6 6 6 6 5 4 4 5 4 4 4 5 7 12 12
4 4 4 4 4 4 2 3 5 5 5 6 5 4 2 4 3 4 5 6 6 6 5 5 5 7 8 7 9 8 7 6 5 4 3 4 5 4 4 4 4 6 8
Wind_Direction
232 228 252 280 283 290 279 292 298 302 288 280 281 283 284 283 280 279 267 207 246 265 272 276 272 265 259 247 239 229 222 220 221 219 215 215 218 220 219 215 213 213 210
244 245 238 268 288 303 318 301 305 295 291 296 288 287 284 284 277 276 277 248 217 239 262 274 277 272 267 258 247 237 225 218 218 216 214 213 215 218 220 218 215 215 215
222 247 254 262 310 304 285 285 295 291 284 283 282 283 280 280 280 276 274 277 258 224 232 258 274 277 269 261 252 241 230 223 217 213 213 210 209 216 222 221 216 213 215
228 246 257 290 293 280 284 292 290 298 300 294 293 289 284 274 270 270 267 266 276 279 238 220 258 272 272 262 255 246 235 226 221 217 215 214 213 213 219 221 217 211 213
227 252 280 328 276 282 296 300 319 307 301 300 293 282 281 275 272 266 270 269 270 274 278 225 229 249 262 262 254 248 239 230 224 220 218 218 219 215 217 218 219 214 212
213 254 236 261 276 287 301 315 309 300 296 299 294 291 279 274 268 268 269 263 263 271 275 285 262 228 228 250 250 246 243 236 228 223 220 222 224 218 215 218 218 216 215
223 253 279 244 273 290 307 311 304 295 294 306 291 285 267 250 254 260 266 275 269 272 277 276 274 278 241 217 230 241 244 238 230 227 226 225 225 222 216 217 217 219 218
225 237 261 266 279 279 290 306 303 300 303 307 303 302 291 262 227 261 261 262 278 276 272 268 278 274 279 269 189 216 233 236 231 228 229 228 225 224 221 218 218 221 220
211 250 263 287 288 286 308 298 299 295 300 301 307 304 305 315 321 272 280 279 281 281 275 268 261 267 267 266 254 208 218 228 230 228 230 231 228 225 225 223 220 219 217
203 202 232 261 284 295 306 290 300 292 290 297 290 277 286 305 297 299 282 286 288 282 282 279 272 262 258 257 245 234 214 226 233 235 235 232 226 225 225 223 218 211 212
199 196 215 243 258 280 305 314 313 300 298 297 296 289 285 271 264 277 292 300 293 293 297 284 279 273 270 263 255 220 200 224 235 237 235 232 227 225 223 219 214 213 212
192 194 216 237 259 284 283 284 284 282 291 295 292 288 286 285 286 283 287 293 297 300 305 295 280 275 271 266 256 168 210 216 230 237 238 236 231 228 223 220 217 216 216
205 194 225 248 268 275 278 281 274 288 287 287 283 286 288 287 289 286 284 290 295 296 291 278 279 283 280 283 265 165 217 214 218 227 236 235 232 233 228 224 221 219 219
231 219 225 241 259 268 275 279 278 282 283 283 282 285 282 283 285 281 281 287 287 287 284 288 290 282 295 295 345 233 232 196 209 222 228 228 228 227 227 224 221 220 220
224 225 233 246 258 265 276 279 282 285 286 282 285 279 277 280 279 281 277 276 282 290 297 298 285 286 287 300 288 266 255 185 196 214 218 220 222 220 221 223 219 219 218
237 240 243 251 261 268 273 279 284 286 285 286 289 292 286 285 283 280 276 273 270 274 283 291 289 297 312 299 255 270 265 186 204 210 215 220 222 218 219 222 219 217 216
233 242 250 257 266 275 282 282 286 290 286 291 292 289 285 286 283 286 282 274 270 270 275 283 284 284 277 274 268 264 254 242 214 192 202 214 221 220 220 219 219 217 215
243 250 260 272 278 283 285 284 287 291 289 290 294 294 290 285 279 278 280 280 279 275 273 281 288 282 274 268 262 260 253 243 244 182 190 206 219 222 223 220 217 215 213
249 257 264 274 279 283 280 280 284 287 288 291 292 290 288 285 281 281 277 280 279 273 267 271 279 281 273 267 264 258 254 250 251 206 196 203 213 220 224 222 219 216 213
252 260 269 273 277 282 283 286 287 286 287 289 287 284 283 283 282 284 282 281 281 279 268 264 270 267 262 257 259 258 252 242 248 244 223 206 200 207 219 222 218 215 214
257 265 273 275 279 280 292 305 298 292 291 289 286 282 283 285 286 282 288 294 289 284 281 276 273 271 269 260 257 264 262 261 257 246 238 223 205 211 206 213 214 211 210
274 276 276 280 284 293 3 311 290 289 289 289 291 292 287 266 254 243 253 265 276 278 287 287 280 277 276 272 269 267 265 263 261 235 246 245 235 234 224 216 188 191 203
276 276 275 277 284 294 296 282 276 279 281 287 291 293 293 300 288 286 258 239 245 244 251 270 280 281 280 274 274 268 265 270 276 269 256 255 240 242 239 209 167 186 202
281 281 281 285 289 292 283 285 285 268 275 284 288 291 292 293 296 304 292 281 275 258 245 246 263 271 275 282 274 272 271 262 257 245 242 252 244 246 247 220 174 191 203
285 283 282 283 289 295 266 271 286 284 285 289 288 291 291 289 315 289 280 286 286 280 252 246 261 273 280 273 273 270 259 252 251 242 219 245 254 254 245 233 194 190 202
280 283 289 287 291 299 276 264 280 286 296 297 296 287 261 272 289 266 271 283 289 293 296 280 251 245 247 242 232 245 258 262 263 257 218 237 249 251 247 233 221 199 207